SKW3287 KSTS-KSNA

Flight info

Callsign SKW3287
Flight time 1h 8m
Altitude 37000
Route RREHD1 HADLY FFOIL LIBBO TILLT RUKKI1
Aircraft E75L/M-SDE3GILORVW/S

Departure

Time 2026-04-28 23:50
Airport Charles M. Schulz Sonoma County Airport (KSTS)

Arrival

Time 2026-04-29 00:59
Airport John Wayne Orange County International Airport (KSNA)
Time Latitude Longitude Altitude Speed Heading
2026-04-28 23:28 38.51047 -122.80692 120 ft 0 kts 67°
2026-04-28 23:43 38.51043 -122.80705 120 ft 2 kts 67°
2026-04-28 23:43 38.51039 -122.80719 120 ft 0 kts 67°
2026-04-28 23:43 38.51032 -122.80732 120 ft 2 kts 45°
2026-04-28 23:43 38.51020 -122.80743 120 ft 2 kts 18°
2026-04-28 23:44 38.51005 -122.80744 120 ft 2 kts 351°
2026-04-28 23:44 38.50996 -122.80741 120 ft 0 kts 338°
2026-04-28 23:46 38.51001 -122.80744 120 ft 2 kts 337°
2026-04-28 23:47 38.51030 -122.80759 120 ft 7 kts 336°
2026-04-28 23:47 38.51082 -122.80788 119 ft 8 kts 328°
2026-04-28 23:47 38.51099 -122.80863 118 ft 9 kts 295°
2026-04-28 23:47 38.51159 -122.80907 117 ft 11 kts 337°
2026-04-28 23:48 38.51237 -122.80949 116 ft 13 kts 337°
2026-04-28 23:48 38.51331 -122.81001 114 ft 15 kts 337°
2026-04-28 23:48 38.51439 -122.81058 112 ft 17 kts 336°
2026-04-28 23:48 38.51561 -122.81121 110 ft 19 kts 336°
2026-04-28 23:49 38.51689 -122.81190 108 ft 19 kts 336°
2026-04-28 23:49 38.51775 -122.81247 107 ft 11 kts 299°
2026-04-28 23:49 38.51755 -122.81338 107 ft 10 kts 239°
2026-04-28 23:49 38.51699 -122.81355 108 ft 2 kts 159°
2026-04-28 23:50 38.51636 -122.81322 109 ft 39 kts 157°
2026-04-28 23:50 38.51141 -122.81057 119 ft 111 kts 157°
2026-04-28 23:50 38.50259 -122.80576 214 ft 156 kts 158°
2026-04-28 23:50 38.49258 -122.80069 908 ft 156 kts 172°
2026-04-28 23:51 38.48186 -122.80352 1407 ft 168 kts 218°
2026-04-28 23:51 38.47419 -122.81503 1925 ft 180 kts 242°
2026-04-28 23:51 38.46822 -122.83006 2263 ft 201 kts 245°
2026-04-28 23:51 38.46130 -122.84670 2561 ft 223 kts 243°
2026-04-28 23:52 38.45341 -122.86441 3045 ft 237 kts 241°
2026-04-28 23:52 38.44494 -122.88271 3669 ft 245 kts 241°
2026-04-28 23:52 38.43595 -122.90171 4323 ft 252 kts 240°
2026-04-28 23:52 38.42686 -122.92070 5049 ft 256 kts 240°
2026-04-28 23:53 38.41744 -122.94028 5779 ft 260 kts 239°
2026-04-28 23:53 38.40805 -122.95971 6521 ft 262 kts 239°
2026-04-28 23:53 38.39843 -122.97961 7291 ft 265 kts 239°
2026-04-28 23:53 38.38798 -122.99888 8047 ft 269 kts 223°
2026-04-28 23:54 38.37137 -123.00984 8681 ft 276 kts 188°
2026-04-28 23:54 38.35195 -123.01099 9165 ft 290 kts 179°
2026-04-28 23:54 38.33138 -123.01115 9751 ft 300 kts 179°
2026-04-28 23:54 38.31025 -123.01135 10479 ft 305 kts 179°
2026-04-28 23:55 38.28859 -123.01158 11176 ft 313 kts 180°
2026-04-28 23:55 38.26678 -123.01182 11781 ft 323 kts 180°
2026-04-28 23:55 38.24372 -123.01208 12302 ft 334 kts 180°
2026-04-28 23:55 38.22005 -123.01235 12862 ft 343 kts 180°
2026-04-28 23:56 38.19592 -123.01263 13571 ft 349 kts 180°
2026-04-28 23:56 38.17161 -123.01290 14352 ft 352 kts 180°
2026-04-28 23:56 38.14720 -123.01318 15126 ft 355 kts 180°
2026-04-28 23:56 38.12236 -123.01346 15815 ft 360 kts 181°
2026-04-28 23:57 38.09721 -123.01375 16426 ft 364 kts 181°
2026-04-28 23:57 38.07162 -123.01251 17033 ft 369 kts 167°
2026-04-28 23:57 38.04795 -123.00088 17570 ft 372 kts 151°
2026-04-28 23:57 38.02482 -122.98560 18212 ft 376 kts 151°
2026-04-28 23:58 38.00150 -122.97012 18804 ft 379 kts 151°
2026-04-28 23:58 37.97797 -122.95450 19373 ft 383 kts 151°
2026-04-28 23:58 37.95449 -122.93892 19916 ft 387 kts 151°
2026-04-28 23:58 37.93049 -122.92300 20423 ft 391 kts 151°
2026-04-28 23:59 37.90623 -122.90693 20946 ft 394 kts 151°
2026-04-28 23:59 37.88195 -122.89085 21412 ft 398 kts 151°
2026-04-28 23:59 37.85716 -122.87444 21873 ft 402 kts 151°
2026-04-28 23:59 37.83245 -122.85810 22326 ft 406 kts 151°
2026-04-29 00:00 37.80716 -122.84139 22789 ft 409 kts 151°
2026-04-29 00:00 37.78170 -122.82458 23241 ft 412 kts 151°
2026-04-29 00:00 37.75635 -122.80786 23678 ft 415 kts 151°
2026-04-29 00:00 37.73075 -122.79098 24139 ft 418 kts 151°
2026-04-29 00:01 37.70459 -122.77375 24583 ft 420 kts 150°
2026-04-29 00:01 37.67869 -122.75671 25001 ft 423 kts 150°
2026-04-29 00:01 37.65260 -122.73955 25391 ft 427 kts 150°
2026-04-29 00:01 37.62611 -122.72214 25796 ft 430 kts 150°
2026-04-29 00:02 37.59906 -122.70438 26170 ft 434 kts 150°
2026-04-29 00:02 37.57248 -122.68694 26562 ft 437 kts 150°
2026-04-29 00:02 37.54549 -122.66925 26959 ft 439 kts 150°
2026-04-29 00:02 37.51799 -122.65124 27337 ft 442 kts 150°
2026-04-29 00:03 37.49088 -122.63349 27700 ft 445 kts 150°
2026-04-29 00:03 37.46312 -122.61535 28070 ft 447 kts 150°
2026-04-29 00:03 37.43548 -122.59740 28439 ft 450 kts 152°
2026-04-29 00:03 37.40606 -122.58320 28762 ft 455 kts 163°
2026-04-29 00:04 37.37502 -122.57506 29125 ft 457 kts 172°
2026-04-29 00:04 37.34278 -122.57308 29440 ft 460 kts 180°
2026-04-29 00:04 37.31052 -122.57274 29748 ft 463 kts 179°
2026-04-29 00:04 37.27800 -122.57196 30048 ft 466 kts 179°
2026-04-29 00:05 37.24522 -122.57105 30401 ft 468 kts 179°
2026-04-29 00:05 37.21238 -122.57011 30754 ft 470 kts 178°
2026-04-29 00:05 37.17904 -122.56916 31105 ft 471 kts 178°
2026-04-29 00:05 37.14630 -122.56822 31422 ft 473 kts 178°
2026-04-29 00:06 37.11308 -122.56727 31737 ft 475 kts 178°
2026-04-29 00:06 37.07977 -122.56631 32087 ft 476 kts 178°
2026-04-29 00:06 37.04649 -122.56482 32488 ft 475 kts 173°
2026-04-29 00:06 37.01422 -122.55810 32891 ft 473 kts 163°
2026-04-29 00:07 36.98316 -122.54559 33340 ft 469 kts 155°
2026-04-29 00:07 36.95394 -122.52736 33756 ft 464 kts 145°
2026-04-29 00:07 36.92654 -122.50610 34138 ft 463 kts 145°
2026-04-29 00:07 36.89901 -122.48548 34456 ft 463 kts 146°
2026-04-29 00:08 36.87107 -122.46485 34735 ft 462 kts 146°
2026-04-29 00:08 36.84332 -122.44444 34992 ft 462 kts 146°
2026-04-29 00:08 36.81570 -122.42418 35249 ft 463 kts 146°
2026-04-29 00:08 36.78809 -122.40394 35491 ft 463 kts 147°
2026-04-29 00:09 36.76000 -122.38336 35745 ft 463 kts 147°
2026-04-29 00:09 36.73240 -122.36318 36039 ft 461 kts 147°
2026-04-29 00:09 36.70450 -122.34277 36323 ft 461 kts 148°
2026-04-29 00:09 36.67693 -122.32264 36595 ft 462 kts 148°
2026-04-29 00:10 36.64926 -122.30244 36908 ft 461 kts 148°
2026-04-29 00:10 36.62176 -122.28239 37086 ft 454 kts 148°
2026-04-29 00:10 36.56666 -122.24227 37121 ft 464 kts 149°
2026-04-29 00:11 36.51000 -122.20106 37129 ft 475 kts 149°
2026-04-29 00:12 36.42312 -122.13804 37126 ft 487 kts 149°
2026-04-29 00:12 36.36434 -122.09550 37119 ft 488 kts 150°
2026-04-29 00:13 36.30599 -122.05334 37121 ft 486 kts 150°
2026-04-29 00:13 36.24754 -122.01117 37125 ft 484 kts 150°
2026-04-29 00:14 36.18970 -121.96951 37122 ft 482 kts 150°
2026-04-29 00:14 36.13146 -121.92765 37121 ft 482 kts 151°
2026-04-29 00:15 36.07344 -121.88601 37118 ft 482 kts 151°
2026-04-29 00:15 36.01600 -121.84348 37117 ft 480 kts 145°
2026-04-29 00:16 35.96806 -121.78588 37111 ft 485 kts 128°
2026-04-29 00:16 35.92680 -121.72087 37283 ft 484 kts 129°
2026-04-29 00:16 35.90564 -121.68829 37105 ft 482 kts 129°
2026-04-29 00:17 35.88467 -121.65607 37097 ft 481 kts 129°
2026-04-29 00:17 35.84243 -121.59132 37088 ft 486 kts 130°
2026-04-29 00:18 35.80012 -121.52660 37088 ft 486 kts 130°
2026-04-29 00:18 35.75753 -121.46155 37086 ft 488 kts 131°
2026-04-29 00:19 35.71504 -121.39681 37093 ft 485 kts 130°
2026-04-29 00:19 35.67278 -121.33250 37089 ft 485 kts 132°
2026-04-29 00:20 35.63002 -121.26760 37085 ft 490 kts 132°
2026-04-29 00:20 35.58738 -121.20295 37079 ft 490 kts 132°
2026-04-29 00:21 35.54410 -121.13750 37083 ft 491 kts 133°
2026-04-29 00:21 35.50121 -121.07273 37071 ft 489 kts 134°
2026-04-29 00:22 35.45805 -121.00829 37072 ft 488 kts 137°
2026-04-29 00:22 35.40872 -120.95241 37079 ft 482 kts 144°
2026-04-29 00:23 35.35848 -120.89809 37090 ft 481 kts 144°
2026-04-29 00:23 35.30844 -120.84409 37098 ft 481 kts 145°
2026-04-29 00:24 35.25805 -120.78976 37087 ft 479 kts 146°
2026-04-29 00:24 35.20847 -120.73644 37092 ft 475 kts 146°
2026-04-29 00:25 35.15858 -120.68288 37085 ft 478 kts 147°
2026-04-29 00:25 35.10927 -120.63002 37082 ft 473 kts 147°
2026-04-29 00:26 35.05962 -120.57690 37076 ft 477 kts 147°
2026-04-29 00:26 35.03378 -120.55225 37080 ft 464 kts 155°
2026-04-29 00:26 35.00691 -120.53048 37082 ft 462 kts 155°
2026-04-29 00:27 34.95351 -120.48720 37066 ft 460 kts 156°
2026-04-29 00:27 34.90019 -120.44406 37082 ft 457 kts 156°
2026-04-29 00:28 34.84723 -120.40127 37094 ft 457 kts 156°
2026-04-29 00:28 34.79441 -120.35864 37105 ft 454 kts 156°
2026-04-29 00:29 34.74140 -120.31593 37088 ft 453 kts 158°
2026-04-29 00:29 34.68907 -120.27387 37077 ft 451 kts 158°
2026-04-29 00:30 34.63672 -120.23193 37064 ft 451 kts 158°
2026-04-29 00:30 34.58498 -120.19051 37073 ft 442 kts 158°
2026-04-29 00:31 34.53330 -120.14925 37029 ft 448 kts 159°
2026-04-29 00:31 34.50708 -120.12835 36531 ft 451 kts 158°
2026-04-29 00:31 34.48111 -120.10761 36035 ft 447 kts 158°
2026-04-29 00:31 34.45514 -120.08692 35550 ft 445 kts 158°
2026-04-29 00:32 34.42921 -120.06631 35064 ft 447 kts 158°
2026-04-29 00:32 34.40337 -120.04573 34545 ft 444 kts 158°
2026-04-29 00:32 34.37735 -120.02507 34069 ft 445 kts 158°
2026-04-29 00:32 34.35156 -120.00460 33591 ft 448 kts 157°
2026-04-29 00:33 34.32491 -119.98345 33097 ft 454 kts 157°
2026-04-29 00:33 34.29871 -119.96268 32596 ft 461 kts 157°
2026-04-29 00:33 34.27191 -119.94143 32083 ft 463 kts 157°
2026-04-29 00:33 34.24501 -119.92012 31573 ft 462 kts 157°
2026-04-29 00:34 34.21839 -119.89906 31056 ft 458 kts 156°
2026-04-29 00:34 34.19168 -119.87794 30551 ft 457 kts 156°
2026-04-29 00:34 34.16449 -119.85648 30035 ft 463 kts 155°
2026-04-29 00:34 34.13756 -119.83520 29506 ft 462 kts 155°
2026-04-29 00:35 34.11095 -119.81419 29002 ft 459 kts 155°
2026-04-29 00:35 34.08576 -119.79037 28492 ft 463 kts 144°
2026-04-29 00:35 34.06364 -119.76170 28008 ft 468 kts 135°
2026-04-29 00:35 34.04536 -119.72927 27494 ft 473 kts 124°
2026-04-29 00:36 34.02914 -119.69479 26969 ft 467 kts 126°
2026-04-29 00:36 34.01259 -119.66113 26450 ft 462 kts 126°
2026-04-29 00:36 33.99628 -119.62844 25942 ft 456 kts 126°
2026-04-29 00:36 33.97991 -119.59579 25437 ft 451 kts 126°
2026-04-29 00:37 33.96368 -119.56349 24935 ft 447 kts 126°
2026-04-29 00:37 33.94776 -119.53186 24461 ft 445 kts 126°
2026-04-29 00:37 33.93180 -119.50015 23964 ft 441 kts 126°
2026-04-29 00:37 33.91591 -119.46862 23487 ft 437 kts 125°
2026-04-29 00:38 33.90035 -119.43776 23012 ft 433 kts 124°
2026-04-29 00:38 33.88512 -119.40670 22575 ft 429 kts 124°
2026-04-29 00:38 33.86996 -119.37569 22098 ft 427 kts 124°
2026-04-29 00:38 33.85497 -119.34501 21635 ft 422 kts 125°
2026-04-29 00:39 33.84022 -119.31489 21164 ft 418 kts 125°
2026-04-29 00:39 33.82549 -119.28481 20697 ft 413 kts 125°
2026-04-29 00:39 33.81095 -119.25517 20246 ft 412 kts 124°
2026-04-29 00:39 33.79651 -119.22572 19809 ft 406 kts 125°
2026-04-29 00:40 33.78232 -119.19682 19359 ft 403 kts 125°
2026-04-29 00:40 33.76802 -119.16773 18823 ft 400 kts 124°
2026-04-29 00:40 33.75415 -119.13953 18394 ft 393 kts 124°
2026-04-29 00:40 33.74014 -119.11106 17951 ft 390 kts 124°
2026-04-29 00:41 33.72637 -119.08311 17523 ft 386 kts 124°
2026-04-29 00:41 33.71742 -119.06494 17245 ft 384 kts 124°
2026-04-29 00:41 33.69922 -119.02836 16680 ft 380 kts 124°
2026-04-29 00:41 33.68551 -119.00101 16257 ft 377 kts 124°
2026-04-29 00:42 33.67213 -118.97437 15855 ft 375 kts 124°
2026-04-29 00:42 33.65864 -118.94753 15431 ft 371 kts 124°
2026-04-29 00:42 33.64540 -118.92120 15026 ft 367 kts 124°
2026-04-29 00:42 33.63236 -118.89528 14609 ft 364 kts 124°
2026-04-29 00:43 33.61925 -118.86925 14222 ft 362 kts 124°
2026-04-29 00:43 33.60619 -118.84332 13818 ft 359 kts 124°
2026-04-29 00:43 33.59336 -118.81789 13410 ft 356 kts 124°
2026-04-29 00:43 33.58068 -118.79276 13030 ft 353 kts 124°
2026-04-29 00:44 33.57061 -118.76595 12649 ft 356 kts 105°
2026-04-29 00:44 33.56561 -118.73686 12315 ft 354 kts 102°
2026-04-29 00:44 33.56098 -118.70836 11928 ft 352 kts 103°
2026-04-29 00:44 33.55633 -118.67960 11534 ft 346 kts 102°
2026-04-29 00:45 33.55179 -118.65149 11146 ft 337 kts 102°
2026-04-29 00:45 33.54743 -118.62452 10804 ft 327 kts 102°
2026-04-29 00:45 33.54318 -118.59824 10437 ft 317 kts 102°
2026-04-29 00:45 33.53905 -118.57279 10088 ft 308 kts 102°
2026-04-29 00:46 33.53500 -118.54784 9747 ft 300 kts 102°
2026-04-29 00:46 33.53103 -118.52342 9431 ft 296 kts 102°
2026-04-29 00:46 33.52707 -118.49911 9118 ft 295 kts 101°
2026-04-29 00:46 33.52317 -118.47513 8798 ft 295 kts 101°
2026-04-29 00:47 33.52126 -118.45095 8519 ft 291 kts 91°
2026-04-29 00:47 33.52065 -118.42650 8225 ft 292 kts 91°
2026-04-29 00:47 33.52002 -118.40217 7895 ft 288 kts 91°
2026-04-29 00:47 33.51942 -118.37856 7570 ft 284 kts 91°
2026-04-29 00:48 33.51880 -118.35486 7257 ft 280 kts 91°
2026-04-29 00:48 33.51922 -118.33173 6951 ft 281 kts 76°
2026-04-29 00:48 33.52542 -118.31007 6803 ft 267 kts 70°
2026-04-29 00:48 33.53185 -118.28982 6525 ft 259 kts 70°
2026-04-29 00:49 33.53820 -118.26987 6251 ft 251 kts 70°
2026-04-29 00:49 33.54434 -118.25060 5973 ft 245 kts 69°
2026-04-29 00:49 33.55031 -118.23190 5705 ft 238 kts 69°
2026-04-29 00:49 33.55619 -118.21349 5451 ft 232 kts 68°
2026-04-29 00:50 33.56194 -118.19552 5198 ft 227 kts 70°
2026-04-29 00:50 33.56778 -118.17821 4944 ft 222 kts 61°
2026-04-29 00:50 33.57596 -118.16303 4941 ft 217 kts 57°
2026-04-29 00:50 33.58432 -118.14801 4959 ft 216 kts 57°
2026-04-29 00:51 33.59275 -118.13286 4967 ft 218 kts 57°
2026-04-29 00:51 33.60120 -118.11770 4969 ft 217 kts 57°
2026-04-29 00:51 33.60957 -118.10265 4967 ft 218 kts 57°
2026-04-29 00:51 33.61805 -118.08745 4966 ft 217 kts 57°
2026-04-29 00:52 33.62644 -118.07236 4966 ft 218 kts 57°
2026-04-29 00:52 33.63486 -118.05724 4968 ft 216 kts 57°
2026-04-29 00:52 33.64317 -118.04229 4966 ft 218 kts 57°
2026-04-29 00:52 33.65163 -118.02708 4965 ft 218 kts 57°
2026-04-29 00:53 33.66009 -118.01186 4963 ft 218 kts 57°
2026-04-29 00:53 33.66854 -117.99665 4965 ft 220 kts 57°
2026-04-29 00:53 33.67704 -117.98135 4966 ft 219 kts 57°
2026-04-29 00:53 33.68542 -117.96625 4966 ft 219 kts 57°
2026-04-29 00:54 33.69416 -117.95075 4965 ft 220 kts 50°
2026-04-29 00:54 33.70658 -117.93996 4852 ft 224 kts 29°
2026-04-29 00:54 33.72020 -117.93124 4533 ft 224 kts 28°
2026-04-29 00:54 33.73397 -117.92254 4236 ft 221 kts 28°
2026-04-29 00:55 33.74750 -117.91406 3932 ft 214 kts 27°
2026-04-29 00:55 33.76042 -117.90565 3661 ft 211 kts 38°
2026-04-29 00:55 33.76809 -117.89096 3449 ft 214 kts 82°
2026-04-29 00:55 33.76616 -117.87318 3042 ft 220 kts 108°
2026-04-29 00:56 33.76128 -117.85555 2637 ft 216 kts 109°
2026-04-29 00:56 33.75671 -117.83920 2168 ft 205 kts 109°
2026-04-29 00:56 33.74886 -117.82583 1721 ft 189 kts 151°
2026-04-29 00:56 33.73707 -117.82143 1367 ft 169 kts 189°
2026-04-29 00:57 33.72795 -117.82773 1175 ft 144 kts 230°
2026-04-29 00:57 33.72178 -117.83649 977 ft 128 kts 231°
2026-04-29 00:57 33.71555 -117.84367 787 ft 126 kts 217°
2026-04-29 00:57 33.70780 -117.84851 684 ft 125 kts 207°
2026-04-29 00:58 33.70011 -117.85340 506 ft 125 kts 211°
2026-04-29 00:58 33.69238 -117.85821 367 ft 123 kts 211°
2026-04-29 00:58 33.68492 -117.86292 173 ft 119 kts 211°
2026-04-29 00:58 33.67773 -117.86755 66 ft 104 kts 208°
2026-04-29 00:59 33.67340 -117.87031 66 ft 51 kts 208°
2026-04-29 00:59 33.67084 -117.87195 65 ft 30 kts 206°
2026-04-29 00:59 33.66999 -117.87233 65 ft 10 kts 175°
2026-04-29 00:59 33.66933 -117.87184 65 ft 11 kts 137°
2026-04-29 01:00 33.66904 -117.87110 65 ft 9 kts 71°
2026-04-29 01:00 33.66955 -117.87048 65 ft 11 kts 40°
2026-04-29 01:00 33.67017 -117.86985 66 ft 11 kts 41°
2026-04-29 01:00 33.67084 -117.86916 65 ft 13 kts 40°
2026-04-29 01:01 33.67164 -117.86844 66 ft 14 kts 31°
2026-04-29 01:01 33.67252 -117.86787 66 ft 13 kts 27°
2026-04-29 01:01 33.67323 -117.86708 66 ft 14 kts 42°
2026-04-29 01:01 33.67414 -117.86646 66 ft 15 kts 27°
2026-04-29 01:02 33.67505 -117.86588 66 ft 14 kts 27°
2026-04-29 01:02 33.67590 -117.86534 66 ft 13 kts 27°
2026-04-29 01:02 33.67673 -117.86482 66 ft 12 kts 28°
2026-04-29 01:02 33.67749 -117.86433 66 ft 12 kts 28°
2026-04-29 01:03 33.67821 -117.86388 66 ft 8 kts 25°
2026-04-29 01:03 33.67853 -117.86354 66 ft 5 kts 94°
2026-04-29 01:03 33.67836 -117.86314 66 ft 4 kts 118°
2026-04-29 01:03 33.67831 -117.86301 66 ft 0 kts 118°
2026-04-29 01:04 33.67831 -117.86302 66 ft 0 kts 118°